Regional Weather Roundup
Issued by NWS

Home | Current Version | Previous Version | Text Only | Print | Product List | Glossary Off
Versions: 1 2 3 4 5 6 7 8 9 10 11 12 13 14 15 16 17 18 19 20 21 22 23 24 25 26 27 28 29 30 31 32 33 34 35 36 37 38 39 40 41 42 43 44 45 46 47 48 49 50

000
ASUS43 KDTX 181010
RWRMI
MICHIGAN HOURLY REGIONAL WEATHER ROUNDUP
NATIONAL WEATHER SERVICE DETROIT/PONTIAC MI
500 AM EST SUN FEB 18 2018

NOTE: "FAIR" INDICATES FEW OR NO CLOUDS BELOW 12,000 FEET WITH NO
SIGNIFICANT WEATHER AND/OR OBSTRUCTION TO VISIBILITY.

MIZ047>049-052>055-059>063-066>070-074>076-081>083-181100-
SOUTHEAST LOWER MICHIGAN

CITY           SKY/WX    TMP DP  RH WIND       PRES   REMARKS
ADRIAN         CLOUDY    30  24  78 NW10      30.23R WCI  21
ALMA           CLOUDY    30  24  78 W7        30.18R WCI  23
ANN ARBOR      CLOUDY    31  26  82 W8        30.21R WCI  23
BAD AXE        CLOUDY    29  25  84 W6        30.14R WCI  23
CARO           CLOUDY    30  24  79 W7        30.16R WCI  23
DETROIT CITY   CLOUDY    31  26  82 W8        30.21R WCI  23
DETROIT        CLOUDY    31  26  82 W8        30.22R WCI  23
FLINT          CLOUDY    29  24  82 W13       30.18R WCI  19
GROSSE ILE     CLOUDY    31  28  88 W5        30.22R WCI  26
HILLSDALE      CLOUDY    30  25  80 W7        30.21R WCI  23
HOWELL         CLOUDY    30  25  82 W12G18    30.19R WCI  21

CITY           SKY/WX    TMP DP  RH WIND       PRES   REMARKS
JACKSON        CLOUDY    30  24  78 W9        30.20R WCI  22
LAMBERTVILLE   CLOUDY    31  28  85 W6        30.24R WCI  26
LANSING        CLOUDY    29  23  78 W12       30.21R WCI  19
LAPEER         CLOUDY    30  26  83 W7        30.17R WCI  23
MASON          CLOUDY    31  21  65 W12       30.20R WCI  22
MONROE         CLOUDY    31  28  89 W3        30.23R
MT. CLEMENS    CLOUDY    30  30  99 W7        30.18R WCI  24
PONTIAC        CLOUDY    30  26  85 W10       30.17R WCI  21
PORT HOPE        N/A     31  23  72 W10       30.10R WCI  22
PORT HURON     CLOUDY    30  25  80 W6        30.18R WCI  24
TRI CITIES     CLOUDY    30  22  72 SW8       30.17R WCI  22
MIDLAND        CLOUDY    31  22  69 SW6       30.17R WCI  25
TROY           CLOUDY    32  27  83 W6        30.21R WCI  26
SAGINAW HB     CLOUDY    30  23  74 W15       30.17R WCI  19
$$
MIZ043>046-050>051-056>058-064>065-071>073-077>080-181100-
SOUTHWEST LOWER MICHIGAN

CITY           SKY/WX    TMP DP  RH WIND       PRES   REMARKS
BATTLE CREEK   MOCLDY    29  23  78 W9        30.22R WCI  20
BENTON HARBOR  CLOUDY    29  24  82 SW8       30.24R WCI  21
BIG RAPIDS     CLOUDY    28  22  78 W10G16    30.14R WCI  19
COLDWATER      CLOUDY    30  25  82 W8        30.23R WCI  23
FREMONT        CLOUDY    26  21  83 SW7       30.18R WCI  18
HOLLAND        CLOUDY    31  25  78 W8        30.22R WCI  23
GRAND RAPIDS   CLOUDY    30  24  78 SW9       30.20R WCI  22
IONIA          CLOUDY    28  24  82 SW9       30.20R WCI  20
KALAMAZOO      FAIR      27  22  81 SW5       30.23R WCI  22
LUDINGTON      FAIR      29  24  80 W6        30.16R WCI  23
MARSHALL       MOCLDY    29  23  79 W7        30.22R WCI  21
MOUNT PLEASANT CLOUDY    31  22  69 W7        30.15R WCI  24
MUSKEGON       FAIR      31  23  72 W9        30.20R WCI  23
SOUTH HAVEN    MOCLDY    31  26  81 W8        30.24R WCI  24
$$
MIZ016>042-181100-
NORTHERN LOWER MICHIGAN

CITY           SKY/WX    TMP DP  RH WIND       PRES   REMARKS
ALPENA         CLOUDY    29  24  82 VRB5      30.09R WCI  24
BEAVER ISLAND  FAIR      25  14  63 W5        30.09R WCI  19
BELLAIRE       FAIR      28  25  89 CALM      30.11R
CADILLAC       CLOUDY    27  21  80 W6        30.09R WCI  20
CHARLEVOIX     MOCLDY    28  20  72 NW9       30.12R WCI  19
FRANKFORT      CLOUDY    31  24  76 W7        30.13R WCI  24
GAYLORD        MOCLDY    25  22  88 W6        30.04R WCI  18
GRAYLING       CLOUDY    26  22  83 W7        30.07R WCI  18
HARBOR SPRINGS FAIR      23  21  95 W3        30.09R
HOUGHTON LAKE  MOCLDY    27  19  72 W10       30.10R WCI  17
MANISTEE       FAIR      28  23  81 W10       30.14R WCI  19
OSCODA         CLOUDY    28  20  71 W7        30.10R WCI  21
PELLSTON       FAIR      23  16  74 VRB3      30.09R
ROGERS CITY    FAIR      26  20  77 W6        30.10R WCI  20
TRAVERSE CITY  MOCLDY    28  22  78 W7        30.10R WCI  21
$$
MIZ007>008-015-181100-
EASTERN UPPER MICHIGAN

CITY           SKY/WX    TMP DP  RH WIND       PRES   REMARKS
KINROSS        FAIR      21  15  78 W8        30.05R WCI  11
MACKINAC ISLAN FAIR      22  16  75 W10G20    30.07R WCI  12
NEWBERRY       MOCLDY    18  15  86 SW6       30.04R WCI  10
S. S. MARIE    FAIR      24  17  74 W8        30.04R WCI  15
MUNISING         N/A     21  12  68 W7        30.07R WCI  12
$$
MIZ004>006-011>014-085-181100-
CENTRAL UPPER MICHIGAN

CITY           SKY/WX    TMP DP  RH WIND       PRES   REMARKS
MANISTIQUE     FAIR      16  10  79 W3        30.07S
ESCANABA       FAIR       9   7  92 CALM      30.10
MENOMINEE      FAIR      16  14  92 W3        30.14R
SAWYER-GWINN   FAIR      13   6  75 CALM      30.04R
$$
MIZ001>003-009>011-084-181100-
WESTERN UPPER MICHIGAN

CITY           SKY/WX    TMP DP  RH WIND       PRES   REMARKS
IRON MOUNTAIN  FAIR      10   5  80 CALM      30.04R
HOUGHTON       CLOUDY    17   5  59 W7        29.99F WCI   8
COPPER HARBOR    N/A     19   8  62 N14       30.02F WCI   6
IRONWOOD       FAIR       5   1  83 SW3       30.05R
$$

ABBREVIATIONS USED IN REMARKS
   TC - TEMPERATURE IN CELSIUS
  WCI - WIND CHILL INDEX
   HX - HEAT INDEX
  VSB - VISIBILITY





USA.gov is the U.S. government's official web portal to all federal, state and local government web resources and services.